period_start,C,m1,H,J0,J1,J2,J3,J4,J5,JA,JB,JC,JD,JJ,JK,JN,#
2015-07-04 00:02:55,0.00,0.16,0.00,27.25,30.82,33.14,4.72,27.16,1011.25,2022.94,3405.60,3248.98,3523.01,349.90,340.99,27.65,0000 0000 0000 0000 000000
2015-07-04 00:07:56,0.01,0.16,0.00,27.25,30.82,33.14,4.72,27.19,1011.24,2022.93,3405.20,3248.94,3523.00,350.26,341.24,27.68,0000 0000 0000 0000 000000
2015-07-04 00:12:58,0.00,0.16,0.00,27.27,30.84,33.13,4.67,27.07,1011.24,2022.90,3405.03,3248.82,3522.99,350.38,341.30,27.71,0000 0000 0000 0000 000000
2015-07-04 00:17:59,-0.00,0.16,0.00,27.27,30.85,33.14,4.71,27.14,1011.23,2022.77,3405.00,3248.42,3522.97,350.57,341.39,27.74,0000 0000 0000 0000 000000
2015-07-04 00:23:00,-0.00,0.16,0.00,27.30,30.85,33.15,4.66,27.11,1011.20,2022.66,3404.99,3248.11,3522.90,350.04,340.54,27.77,0000 0000 0000 0000 000000
2015-07-04 00:28:01,0.00,0.16,0.00,27.30,30.86,33.16,4.67,27.13,1011.19,2022.59,3404.98,3248.04,3522.67,349.97,340.93,27.80,0000 0000 0000 0000 000000
2015-07-04 00:33:02,-0.03,0.16,0.00,27.32,30.87,33.16,4.69,27.18,1011.15,2022.50,3404.99,3248.05,3522.45,350.21,340.92,27.83,0000 0000 0000 0000 000000
2015-07-04 00:38:03,0.02,0.16,0.00,27.32,30.87,33.16,4.71,27.36,1011.18,2022.43,3404.94,3248.00,3522.16,350.42,341.29,27.86,0000 0000 0000 0000 000000
2015-07-04 00:43:05,-0.03,0.16,0.00,27.33,30.88,33.18,4.69,27.27,1011.22,2022.18,3404.68,3248.00,3522.02,349.98,340.86,27.89,0000 0000 0000 0000 000000
2015-07-04 00:48:06,0.00,0.16,0.00,27.35,30.90,33.19,4.66,27.15,1011.24,2022.13,3404.50,3248.00,3522.00,349.81,340.67,27.92,0000 0000 0000 0000 000000
2015-07-04 00:53:07,-0.00,0.16,0.00,27.37,30.90,33.20,4.70,27.13,1011.16,2022.04,3404.10,3247.98,3522.00,350.15,340.98,27.95,0000 0000 0000 0000 000000
2015-07-04 00:58:08,-0.00,0.16,0.00,27.38,30.91,33.20,4.60,27.17,1011.02,2022.02,3404.04,3247.95,3521.96,349.59,340.35,27.97,0000 0000 0000 0000 000000
2015-07-04 01:03:09,0.00,0.16,0.00,27.39,30.92,33.21,4.70,27.32,1010.98,2022.00,3404.05,3247.86,3521.86,350.20,340.91,28.00,0000 0000 0000 0000 000000
2015-07-04 01:08:11,0.01,0.16,0.00,27.40,30.92,33.22,4.70,27.17,1010.82,2022.00,3404.03,3247.67,3521.56,350.30,340.90,28.03,0000 0000 0000 0000 000000
2015-07-04 01:13:12,0.03,0.16,0.00,27.41,30.94,33.23,4.72,27.23,1010.78,2022.00,3404.00,3247.14,3521.17,350.49,341.03,28.06,0000 0000 0000 0000 000000
2015-07-04 01:18:13,0.01,0.16,0.00,27.42,30.95,33.23,4.69,27.34,1010.99,2022.00,3403.91,3247.05,3521.12,349.76,340.39,28.09,0000 0000 0000 0000 000000
2015-07-04 01:23:14,0.01,0.16,0.00,27.42,30.95,33.24,4.70,27.34,1011.24,2022.00,3403.52,3247.01,3521.02,349.93,340.65,28.12,0000 0000 0000 0000 000000
2015-07-04 01:28:16,0.01,0.16,0.00,27.42,30.97,33.25,4.71,27.16,1011.24,2022.00,3403.25,3247.00,3521.01,350.32,340.99,28.15,0000 0000 0000 0000 000000
2015-07-04 01:33:17,0.00,0.16,0.00,27.42,30.97,33.27,4.68,27.22,1011.26,2022.00,3403.01,3246.99,3521.00,349.69,340.49,28.18,0000 0000 0000 0000 000000
2015-07-04 01:38:18,0.00,0.16,0.00,27.42,30.98,33.28,4.75,27.23,1011.27,2022.00,3402.98,3246.98,3521.00,350.51,341.41,28.21,0000 0000 0000 0000 000000
2015-07-04 01:43:20,-0.00,0.16,0.00,27.42,31.00,33.29,4.75,27.19,1011.29,2022.00,3402.92,3246.95,3520.99,350.41,341.16,28.24,0000 0000 0000 0000 000000
2015-07-04 01:48:21,0.00,0.16,0.00,27.42,31.00,33.29,4.73,27.18,1011.25,2022.00,3402.94,3246.94,3520.98,350.38,341.03,28.27,0000 0000 0000 0000 000000
2015-07-04 01:53:23,0.01,0.16,0.00,27.45,31.00,33.30,4.68,27.09,1011.26,2022.00,3402.92,3246.81,3520.96,350.14,340.95,28.30,0000 0000 0000 0000 000000
2015-07-04 01:58:25,0.01,0.16,0.00,27.47,31.02,33.30,4.65,26.98,1011.25,2022.00,3402.76,3246.63,3520.89,350.18,340.96,28.33,0000 0000 0000 0000 000000
2015-07-04 02:03:26,0.03,0.16,0.00,27.48,31.02,33.31,4.70,27.07,1011.26,2022.00,3402.55,3246.39,3520.67,350.08,340.81,28.36,0000 0000 0000 0000 000000
2015-07-04 02:08:27,0.02,0.16,0.00,27.50,31.02,33.31,4.65,27.11,1011.25,2022.00,3402.38,3246.11,3520.35,350.41,341.03,28.38,0000 0000 0000 0000 000000
2015-07-04 02:13:29,0.01,0.17,0.00,27.50,31.04,33.33,4.69,27.13,1011.25,2021.99,3402.09,3246.02,3520.10,350.51,341.01,28.41,0000 0000 0000 0000 000000
2015-07-04 02:18:30,-0.01,0.17,0.00,27.52,31.05,33.34,4.62,27.14,1011.25,2021.97,3402.21,3246.01,3520.01,350.02,340.67,28.44,0000 0000 0000 0000 000000
2015-07-04 02:23:31,-0.00,0.17,0.00,27.53,31.05,33.34,4.74,27.30,1011.24,2021.95,3402.09,3246.00,3520.00,350.43,340.81,28.47,0000 0000 0000 0000 000000
2015-07-04 02:28:33,-0.00,0.17,0.00,27.55,31.07,33.35,4.68,27.13,1011.24,2021.91,3402.02,3246.00,3520.00,350.21,340.80,28.50,0000 0000 0000 0000 000000
2015-07-04 02:33:34,-0.03,0.16,0.00,27.57,31.07,33.36,4.72,27.12,1011.25,2021.70,3402.00,3246.00,3520.00,350.63,341.25,28.53,0000 0000 0000 0000 000000
2015-07-04 02:38:35,-0.06,0.16,0.00,27.58,31.09,33.36,4.66,27.38,1011.25,2021.48,3402.00,3245.95,3519.93,350.09,340.84,28.56,0000 0000 0000 0000 000000
2015-07-04 02:43:36,0.00,0.16,0.00,27.59,31.10,33.38,4.60,27.08,1011.25,2021.25,3401.99,3245.95,3519.92,349.47,340.41,28.59,0000 0000 0000 0000 000000
2015-07-04 02:48:37,-0.01,0.16,0.00,27.59,31.10,33.39,4.67,27.19,1011.25,2021.13,3401.96,3245.64,3519.60,350.19,340.75,28.62,0000 0000 0000 0000 000000
2015-07-04 02:53:39,0.02,0.16,0.00,27.60,31.12,33.40,4.68,27.21,1011.26,2021.04,3401.79,3245.24,3519.16,350.43,340.89,28.65,0000 0000 0000 0000 000000
2015-07-04 02:58:40,0.02,0.16,0.00,27.60,31.12,33.41,4.65,27.18,1011.25,2021.04,3401.48,3245.07,3519.06,349.73,340.23,28.68,0000 0000 0000 0000 000000
2015-07-04 03:03:41,0.00,0.16,0.00,27.62,31.14,33.42,4.65,27.23,1011.26,2021.03,3401.27,3245.05,3519.02,349.97,340.21,28.71,0000 0000 0000 0000 000000
2015-07-04 03:08:42,0.00,0.16,0.00,27.64,31.15,33.43,4.68,27.27,1011.26,2021.00,3401.04,3245.00,3519.00,350.07,340.79,28.74,0000 0000 0000 0000 000000
2015-07-04 03:13:44,0.00,0.16,0.00,27.65,31.16,33.44,4.64,27.13,1011.32,2021.01,3401.00,3245.00,3519.00,349.80,340.35,28.77,0000 0000 0000 0000 000000
2015-07-04 03:18:45,0.00,0.16,0.00,27.66,31.17,33.46,4.68,27.14,1011.41,2021.00,3401.00,3245.00,3519.00,349.78,340.24,28.79,0000 0000 0000 0000 000000
2015-07-04 03:23:46,0.00,0.16,0.00,27.67,31.17,33.47,4.65,27.08,1011.46,2021.00,3401.00,3244.99,3518.97,349.88,340.54,28.82,0000 0000 0000 0000 000000
2015-07-04 03:28:47,0.02,0.16,0.00,27.69,31.20,33.48,4.74,27.12,1011.42,2021.00,3400.93,3244.85,3518.69,350.32,340.67,28.85,0000 0000 0000 0000 000000
2015-07-04 03:33:49,0.04,0.16,0.00,27.70,31.20,33.48,4.75,27.15,1011.41,2021.00,3400.72,3244.44,3518.25,350.99,341.48,28.88,0000 0000 0000 0000 000000
2015-07-04 03:38:50,0.01,0.17,0.00,27.71,31.21,33.50,4.62,27.18,1011.65,2020.99,3400.49,3244.18,3518.08,349.79,340.39,28.91,0000 0000 0000 0000 000000
2015-07-04 03:43:52,-0.00,0.17,0.00,27.70,31.22,33.51,4.71,27.13,1011.71,2020.96,3400.32,3244.06,3518.03,350.25,340.84,28.94,0000 0000 0000 0000 000000
2015-07-04 03:48:53,0.01,0.17,0.00,27.70,31.24,33.51,4.71,27.03,1011.73,2020.97,3400.10,3244.03,3518.02,349.87,340.48,28.97,0000 0000 0000 0000 000000
2015-07-04 03:53:54,0.00,0.17,0.00,27.70,31.25,33.53,4.71,27.19,1011.73,2020.97,3400.06,3244.01,3518.00,350.13,340.66,29.00,0000 0000 0000 0000 000000
2015-07-04 03:58:56,-0.00,0.17,0.00,27.71,31.25,33.54,4.70,27.07,1011.73,2020.93,3400.00,3244.00,3517.99,350.28,340.89,29.03,0000 0000 0000 0000 000000
2015-07-04 04:03:57,-0.02,0.17,0.00,27.72,31.27,33.56,4.69,27.09,1011.73,2020.86,3400.00,3244.00,3517.98,350.20,340.69,29.06,0000 0000 0000 0000 000000
2015-07-04 04:08:58,-0.02,0.17,0.00,27.72,31.27,33.57,4.71,27.12,1011.73,2020.76,3400.00,3244.00,3517.97,350.48,341.16,29.09,0000 0000 0000 0000 000000
2015-07-04 04:14:00,0.03,0.17,0.00,27.73,31.29,33.57,4.74,27.07,1011.74,2020.81,3400.00,3243.99,3517.97,350.32,340.99,29.12,0000 0000 0000 0000 000000
2015-07-04 04:19:01,-0.01,0.17,0.00,27.75,31.30,33.58,4.71,27.17,1011.75,2020.72,3399.94,3243.99,3517.90,350.48,340.92,29.15,0000 0000 0000 0000 000000
2015-07-04 04:24:02,-0.00,0.17,0.00,27.76,31.30,33.58,4.69,27.13,1011.75,2020.64,3399.69,3243.89,3517.62,350.31,340.90,29.18,0000 0000 0000 0000 000000
2015-07-04 04:29:03,-0.01,0.17,0.00,27.77,31.32,33.60,4.64,27.07,1011.77,2020.29,3399.19,3243.42,3517.08,349.36,339.85,29.20,0000 0000 0000 0000 000000
2015-07-04 04:34:05,0.01,0.17,0.00,27.77,31.32,33.60,4.72,27.10,1011.88,2020.24,3399.08,3243.26,3517.04,349.76,340.27,29.23,0000 0000 0000 0000 000000
2015-07-04 04:39:06,-0.01,0.17,0.00,27.77,31.33,33.61,4.68,27.17,1011.81,2020.16,3399.01,3243.05,3517.00,349.89,340.60,29.26,0000 0000 0000 0000 000000
2015-07-04 04:44:08,-0.01,0.17,0.00,27.78,31.35,33.61,4.71,27.18,1011.84,2020.07,3399.03,3243.03,3517.00,350.32,340.86,29.29,0000 0000 0000 0000 000000
2015-07-04 04:49:09,-0.00,0.16,0.00,27.78,31.35,33.63,4.70,27.20,1012.02,2020.03,3399.00,3243.00,3517.00,350.09,340.73,29.32,0000 0000 0000 0000 000000
2015-07-04 04:54:10,0.00,0.16,0.00,27.79,31.36,33.64,4.62,27.07,1012.07,2020.01,3399.00,3243.00,3516.99,349.82,340.38,29.35,0000 0000 0000 0000 000000
2015-07-04 04:59:11,-0.00,0.16,0.00,27.79,31.37,33.66,4.70,27.13,1012.09,2020.01,3399.00,3243.00,3516.96,350.68,341.15,29.38,0000 0000 0000 0000 000000
2015-07-04 05:04:12,0.00,0.16,0.00,27.79,31.37,33.66,4.67,27.01,1012.18,2020.00,3398.99,3243.00,3516.86,350.49,341.14,29.41,0000 0000 0000 0000 000000
2015-07-04 05:09:14,0.02,0.17,0.00,27.80,31.37,33.66,4.69,27.19,1012.22,2020.00,3398.88,3242.96,3516.40,349.81,340.46,29.44,0000 0000 0000 0000 000000
2015-07-04 05:14:15,0.01,0.17,0.00,27.80,31.38,33.67,4.70,27.07,1012.22,2020.00,3398.63,3242.90,3516.15,350.28,341.01,29.47,0000 0000 0000 0000 000000
2015-07-04 05:19:16,0.01,0.17,0.00,27.80,31.40,33.67,4.70,27.12,1012.22,2020.00,3398.35,3242.88,3516.14,349.83,340.50,29.50,0000 0000 0000 0000 000000
2015-07-04 05:24:17,0.02,0.17,0.00,27.80,31.40,33.69,4.69,27.18,1012.22,2020.00,3398.05,3242.83,3516.19,349.76,340.52,29.53,0000 0000 0000 0000 000000
2015-07-04 05:29:18,0.01,0.17,0.00,27.80,31.40,33.68,4.72,27.21,1012.24,2020.00,3398.01,3242.55,3516.06,350.08,340.79,29.56,0000 0000 0000 0000 000000
2015-07-04 05:34:20,0.01,0.17,0.00,27.82,31.42,33.70,4.67,27.13,1012.24,2020.00,3398.00,3242.36,3516.02,350.21,340.98,29.59,0000 0000 0000 0000 000000
2015-07-04 05:39:21,0.01,0.17,0.00,27.81,31.42,33.71,4.72,27.18,1012.28,2020.00,3397.98,3242.08,3516.00,350.51,341.16,29.61,0000 0000 0000 0000 000000
2015-07-04 05:44:22,0.00,0.17,0.00,27.81,31.42,33.72,4.72,27.02,1012.42,2020.00,3397.95,3242.00,3515.99,350.23,341.00,29.64,0000 0000 0000 0000 000000
2015-07-04 05:49:23,0.00,0.17,0.00,27.82,31.43,33.72,4.73,26.98,1012.54,2020.00,3397.95,3242.00,3515.99,350.26,340.72,29.67,0000 0000 0000 0000 000000
2015-07-04 05:54:24,0.01,0.17,0.00,27.82,31.44,33.73,4.66,27.08,1012.62,2020.00,3397.75,3242.00,3515.98,349.90,340.57,29.70,0000 0000 0000 0000 000000
2015-07-04 05:59:25,0.00,0.17,0.00,27.82,31.45,33.73,4.64,27.08,1012.70,2020.00,3397.60,3241.99,3515.93,350.46,341.16,29.73,0000 0000 0000 0000 000000
2015-07-04 06:04:27,0.00,0.17,0.00,27.83,31.45,33.74,4.64,27.02,1012.71,2020.00,3397.58,3241.99,3515.93,349.87,340.67,29.76,0000 0000 0000 0000 000000
2015-07-04 06:09:28,0.01,0.17,0.00,27.83,31.45,33.74,4.72,27.19,1012.71,2019.99,3397.22,3241.99,3515.79,350.17,340.96,29.79,0000 0000 0000 0000 000000
2015-07-04 06:14:29,-0.01,0.17,0.00,27.84,31.46,33.74,4.70,27.02,1012.71,2019.99,3397.23,3241.99,3515.66,350.42,341.14,29.82,0000 0000 0000 0000 000000
2015-07-04 06:19:30,0.01,0.17,0.00,27.85,31.47,33.75,4.68,27.04,1012.72,2019.99,3397.08,3241.97,3515.43,350.12,340.97,29.85,0000 0000 0000 0000 000000
2015-07-04 06:24:32,0.01,0.17,0.00,27.85,31.47,33.76,4.70,27.11,1012.72,2019.99,3397.07,3241.96,3515.41,349.94,340.65,29.88,0000 0000 0000 0000 000000
2015-07-04 06:29:33,0.01,0.17,0.00,27.85,31.47,33.76,4.75,27.03,1012.79,2019.99,3397.00,3241.91,3515.11,350.42,341.21,29.91,0000 0000 0000 0000 000000
2015-07-04 06:34:34,0.01,0.17,0.00,27.84,31.47,33.76,4.72,27.11,1012.84,2019.99,3397.00,3241.71,3515.05,349.91,340.64,29.94,0000 0000 0000 0000 000000
2015-07-04 06:39:35,0.02,0.17,0.00,27.85,31.48,33.77,4.64,27.24,1013.00,2019.99,3396.92,3241.27,3515.00,349.71,340.53,29.97,0000 0000 0000 0000 000000
2015-07-04 06:44:37,-0.00,0.17,0.00,27.85,31.49,33.78,4.69,27.03,1013.15,2019.98,3396.96,3241.15,3515.00,349.78,340.51,30.00,0000 0000 0000 0000 000000
2015-07-04 06:49:38,0.00,0.17,0.00,27.85,31.50,33.79,4.67,27.08,1013.16,2019.98,3396.94,3241.03,3515.00,349.98,340.99,30.03,0000 0000 0000 0000 000000
2015-07-04 06:54:39,0.00,0.17,0.00,27.85,31.50,33.78,4.70,27.03,1013.08,2019.98,3396.94,3241.05,3515.00,349.91,340.83,30.05,0000 0000 0000 0000 000000
2015-07-04 06:59:40,0.00,0.17,0.00,27.85,31.50,33.78,4.67,26.99,1013.00,2019.99,3396.90,3241.03,3515.00,349.85,340.58,30.08,0000 0000 0000 0000 000000
2015-07-04 07:04:41,0.02,0.17,0.00,27.85,31.50,33.79,4.65,27.07,1013.12,2019.98,3396.45,3241.00,3514.79,349.73,340.61,30.11,0000 0000 0000 0000 000000
2015-07-04 07:09:42,0.02,0.17,0.00,27.85,31.50,33.80,4.65,27.07,1013.07,2019.97,3396.05,3240.98,3514.24,349.81,340.62,30.14,0000 0000 0000 0000 000000
2015-07-04 07:14:43,0.01,0.17,0.00,27.85,31.50,33.81,4.65,26.98,1013.07,2019.96,3396.00,3240.78,3514.00,349.99,340.88,30.17,0000 0000 0000 0000 000000
2015-07-04 07:19:45,0.02,0.17,0.00,27.85,31.51,33.79,4.75,27.00,1013.10,2019.96,3395.95,3240.24,3514.00,349.93,340.85,30.20,0000 0000 0000 0000 000000
2015-07-04 07:24:46,0.01,0.17,0.00,27.86,31.52,33.80,4.64,27.08,1013.17,2019.96,3395.67,3240.05,3513.98,349.88,340.73,30.23,0000 0000 0000 0000 000000
2015-07-04 07:29:48,0.01,0.17,0.00,27.87,31.52,33.82,4.63,26.97,1013.13,2019.97,3395.39,3240.01,3513.95,349.49,340.31,30.26,0000 0000 0000 0000 000000
2015-07-04 07:34:49,0.02,0.17,0.00,27.87,31.52,33.81,4.68,26.98,1013.17,2019.95,3395.07,3240.00,3513.56,350.35,341.32,30.29,0000 0000 0000 0000 000000
2015-07-04 07:39:50,-0.03,0.17,0.00,27.87,31.52,33.82,4.63,27.07,1013.19,2019.80,3395.00,3239.99,3513.08,350.07,340.94,30.32,0000 0000 0000 0000 000000
2015-07-04 07:44:51,0.00,0.17,0.00,27.87,31.52,33.82,4.66,26.98,1013.20,2019.76,3395.00,3239.96,3513.02,349.77,340.41,30.35,0000 0000 0000 0000 000000
2015-07-04 07:49:52,-0.01,0.17,0.00,27.87,31.52,33.83,4.64,27.02,1013.20,2019.64,3394.99,3239.92,3513.00,350.12,341.09,30.38,0000 0000 0000 0000 000000
2015-07-04 07:54:54,0.02,0.17,0.00,27.87,31.52,33.82,4.71,27.07,1013.20,2019.71,3394.97,3239.86,3513.00,350.37,341.14,30.41,0000 0000 0000 0000 000000
2015-07-04 07:59:55,0.01,0.17,0.00,27.87,31.52,33.83,4.71,27.07,1013.20,2019.68,3394.85,3239.51,3513.00,349.45,340.49,30.44,0000 0000 0000 0000 000000
2015-07-04 08:04:56,0.01,0.17,0.00,27.87,31.53,33.84,4.68,26.98,1013.20,2019.56,3394.72,3239.26,3512.99,349.59,340.48,30.46,0000 0000 0000 0000 000000
2015-07-04 08:09:58,0.03,0.17,0.00,27.88,31.54,33.83,4.64,26.99,1013.21,2019.80,3394.68,3239.31,3512.99,349.73,340.65,30.49,0000 0000 0000 0000 000000
2015-07-04 08:14:59,0.01,0.18,0.00,27.87,31.55,33.83,4.65,27.10,1013.20,2019.81,3394.35,3239.16,3512.99,350.10,340.93,30.52,0000 0000 0000 0000 000000
2015-07-04 08:20:00,0.01,0.18,0.00,27.88,31.55,33.84,4.64,27.02,1013.20,2019.84,3394.19,3239.12,3512.99,349.99,340.78,30.55,0000 0000 0000 0000 000000
2015-07-04 08:25:01,0.02,0.18,0.00,27.88,31.55,33.84,4.65,26.98,1013.20,2019.83,3394.03,3239.00,3512.32,350.07,340.87,30.58,0000 0000 0000 0000 000000
2015-07-04 08:30:02,0.01,0.18,0.00,27.88,31.55,33.84,4.64,26.90,1013.20,2019.83,3393.98,3238.92,3512.00,349.77,340.79,30.61,0000 0000 0000 0000 000000
2015-07-04 08:35:04,0.05,0.18,0.00,27.88,31.55,33.83,4.67,26.98,1013.20,2019.92,3393.68,3238.32,3512.00,349.54,340.57,30.64,0000 0000 0000 0000 000000
2015-07-04 08:40:05,-0.02,0.18,0.00,27.88,31.55,33.84,4.67,27.03,1013.20,2019.74,3393.20,3238.11,3511.94,350.25,341.20,30.67,0000 0000 0000 0000 000000
2015-07-04 08:45:06,0.04,0.18,0.00,27.87,31.55,33.85,4.68,26.96,1013.20,2019.85,3393.10,3238.06,3511.92,350.01,340.94,30.70,0000 0000 0000 0000 000000
2015-07-04 08:50:07,0.00,0.18,0.00,27.87,31.55,33.86,4.75,27.02,1013.20,2019.87,3393.03,3238.02,3511.88,350.40,341.29,30.73,0000 0000 0000 0000 000000
2015-07-04 08:55:08,0.00,0.18,0.00,27.89,31.55,33.85,4.68,26.98,1013.20,2019.86,3393.02,3238.00,3511.62,350.07,341.08,30.76,0000 0000 0000 0000 000000
2015-07-04 09:00:10,0.01,0.18,0.00,27.88,31.55,33.85,4.63,26.95,1013.20,2019.87,3393.00,3238.01,3511.44,349.96,340.76,30.79,0000 0000 0000 0000 000000
2015-07-04 09:05:11,-0.01,0.18,0.00,27.87,31.55,33.85,4.60,26.98,1013.19,2019.80,3393.00,3238.00,3511.10,349.68,340.57,30.82,0000 0000 0000 0000 000000
2015-07-04 09:10:12,0.00,0.18,0.00,27.88,31.55,33.85,4.62,26.92,1013.20,2019.77,3393.00,3238.00,3511.05,349.43,340.44,30.85,0000 0000 0000 0000 000000
2015-07-04 09:15:13,-0.01,0.18,0.00,27.87,31.55,33.87,4.76,26.95,1013.19,2019.74,3392.99,3237.99,3511.01,350.10,341.15,30.87,0000 0000 0000 0000 000000
2015-07-04 09:20:14,0.01,0.18,0.00,27.87,31.55,33.87,4.71,27.00,1013.20,2019.78,3392.98,3237.99,3511.00,350.33,341.10,30.90,0000 0000 0000 0000 000000
2015-07-04 09:25:16,0.02,0.18,0.00,27.87,31.55,33.86,4.67,26.99,1013.20,2019.80,3392.97,3237.98,3511.00,350.00,340.74,30.93,0000 0000 0000 0000 000000
2015-07-04 09:30:17,0.00,0.18,0.00,27.85,31.55,33.86,4.59,26.99,1013.20,2019.87,3392.93,3237.97,3511.01,349.74,340.68,30.96,0000 0000 0000 0000 000000
2015-07-04 09:35:18,0.00,0.18,0.00,27.85,31.55,33.86,4.67,27.02,1013.21,2019.92,3392.91,3237.97,3511.00,349.76,340.59,30.99,0000 0000 0000 0000 000000
2015-07-04 09:40:20,0.02,0.18,0.00,27.85,31.55,33.86,4.68,27.13,1013.20,2019.90,3392.36,3237.86,3510.99,350.08,341.33,31.02,0000 0000 0000 0000 000000
2015-07-04 09:45:21,0.01,0.18,0.00,27.85,31.55,33.86,4.70,27.08,1013.21,2019.93,3392.25,3237.77,3510.99,350.01,340.88,31.05,0000 0000 0000 0000 000000
2015-07-04 09:50:22,0.01,0.18,0.00,27.85,31.55,33.87,4.68,27.07,1013.22,2019.94,3392.11,3237.55,3510.98,350.18,341.19,31.08,0000 0000 0000 0000 000000
2015-07-04 09:55:23,0.02,0.18,0.00,27.84,31.55,33.86,4.67,27.01,1013.22,2019.91,3392.04,3237.24,3510.93,349.65,340.60,31.11,0000 0000 0000 0000 000000
2015-07-04 10:00:25,-0.01,0.18,0.00,27.82,31.55,33.87,4.65,26.94,1013.23,2019.89,3392.01,3237.13,3510.83,349.80,341.05,31.14,0000 0000 0000 0000 000000
2015-07-04 10:05:25,0.01,0.18,0.00,27.82,31.55,33.86,4.71,26.96,1013.24,2019.95,3392.00,3237.13,3510.84,349.80,340.87,31.17,0000 0000 0000 0000 000000
2015-07-04 10:10:27,0.00,0.18,0.00,27.82,31.55,33.87,4.65,26.93,1013.21,2019.95,3392.00,3237.09,3510.85,349.79,340.69,31.20,0000 0000 0000 0000 000000
2015-07-04 10:15:28,0.01,0.18,0.00,27.82,31.55,33.87,4.70,26.99,1013.23,2019.96,3392.00,3237.07,3510.73,350.17,341.14,31.23,0000 0000 0000 0000 000000
2015-07-04 10:20:29,-0.00,0.18,0.00,27.81,31.55,33.86,4.71,27.00,1013.23,2019.97,3392.00,3237.04,3510.63,350.15,341.06,31.26,0000 0000 0000 0000 000000
2015-07-04 10:25:31,0.00,0.18,0.00,27.81,31.55,33.86,4.74,27.04,1013.24,2019.98,3392.00,3237.04,3510.62,350.18,341.17,31.29,0000 0000 0000 0000 000000
2015-07-04 10:30:32,0.00,0.18,0.00,27.81,31.55,33.87,4.65,27.08,1013.25,2019.99,3391.99,3237.04,3510.60,349.78,340.79,31.31,0000 0000 0000 0000 000000
2015-07-04 10:35:33,0.01,0.18,0.00,27.80,31.55,33.87,4.68,27.03,1013.28,2019.98,3391.96,3237.01,3510.14,350.14,341.35,31.34,0000 0000 0000 0000 000000
2015-07-04 10:40:35,0.00,0.18,0.00,27.80,31.55,33.86,4.70,27.20,1013.26,2019.98,3391.80,3237.00,3510.03,350.15,341.16,31.37,0000 0000 0000 0000 000000
2015-07-04 10:45:36,-0.00,0.18,0.00,27.79,31.55,33.86,4.68,27.01,1013.23,2019.97,3391.88,3237.00,3510.03,350.16,340.96,31.40,0000 0000 0000 0000 000000
2015-07-04 10:50:37,0.00,0.18,0.00,27.78,31.55,33.85,4.70,27.02,1013.37,2019.98,3391.81,3237.00,3510.01,350.37,341.33,31.43,0000 0000 0000 0000 000000
2015-07-04 10:55:39,0.00,0.18,0.00,27.77,31.54,33.86,4.69,26.97,1013.37,2019.99,3391.80,3237.00,3510.02,349.74,340.72,31.46,0000 0000 0000 0000 000000
2015-07-04 11:00:40,0.01,0.18,0.00,27.77,31.54,33.86,4.70,26.94,1013.49,2019.98,3391.55,3237.00,3510.00,350.28,341.23,31.49,0000 0000 0000 0000 000000
2015-07-04 11:05:42,-0.01,0.18,0.00,27.77,31.53,33.86,4.72,26.95,1013.51,2019.99,3391.60,3236.99,3510.01,349.83,340.92,31.52,0000 0000 0000 0000 000000
2015-07-04 11:10:43,0.01,0.18,0.00,27.76,31.52,33.85,4.74,26.93,1013.40,2019.98,3391.24,3236.99,3510.00,350.40,341.55,31.55,0000 0000 0000 0000 000000
2015-07-04 11:15:44,-0.00,0.18,0.00,27.76,31.52,33.86,4.63,26.96,1013.31,2019.98,3391.14,3236.98,3510.00,349.95,340.98,31.58,0000 0000 0000 0000 000000
2015-07-04 11:20:46,0.00,0.18,0.00,27.75,31.52,33.86,4.71,26.98,1013.31,2019.98,3391.15,3236.99,3510.00,349.83,340.92,31.61,0000 0000 0000 0000 000000
2015-07-04 11:25:47,-0.00,0.18,0.00,27.75,31.52,33.86,4.61,26.98,1013.28,2019.99,3391.19,3236.99,3510.00,350.02,341.09,31.64,0000 0000 0000 0000 000000
2015-07-04 11:30:48,0.01,0.18,0.00,27.75,31.52,33.85,4.83,27.03,1013.26,2019.99,3391.06,3236.99,3510.00,350.68,341.65,31.67,0000 0000 0000 0000 000000
2015-07-04 11:35:50,0.00,0.18,0.00,27.74,31.52,33.84,4.66,27.07,1013.24,2019.99,3391.07,3236.99,3510.00,350.02,341.16,31.69,0000 0000 0000 0000 000000
2015-07-04 11:40:51,-0.00,0.18,0.00,27.74,31.52,33.84,4.60,26.99,1013.25,2019.99,3391.01,3236.98,3509.99,349.96,341.11,31.72,0000 0000 0000 0000 000000
2015-07-04 11:45:52,-0.00,0.18,0.00,27.72,31.51,33.84,4.62,26.97,1013.23,2019.99,3391.01,3236.99,3509.99,349.72,340.95,31.75,0000 0000 0000 0000 000000
2015-07-04 11:50:53,0.00,0.18,0.00,27.72,31.50,33.84,4.67,26.88,1013.25,2019.99,3391.00,3236.98,3509.99,350.02,341.05,31.78,0000 0000 0000 0000 000000
2015-07-04 11:55:54,0.00,0.18,0.00,27.72,31.50,33.84,4.65,26.99,1013.23,2019.99,3391.00,3236.98,3509.98,350.01,341.16,31.81,0000 0000 0000 0000 000000
2015-07-04 12:00:55,0.00,0.18,0.00,27.71,31.50,33.84,4.67,26.90,1013.22,2019.99,3391.00,3236.99,3509.99,350.28,341.34,31.84,0000 0000 0000 0000 000000
2015-07-04 12:05:57,0.00,0.18,0.00,27.70,31.50,33.82,4.71,26.93,1013.23,2019.99,3391.00,3236.99,3509.99,349.63,340.95,31.87,0000 0000 0000 0000 000000
2015-07-04 12:10:58,0.00,0.18,0.00,27.70,31.50,33.81,4.73,26.92,1013.24,2019.99,3391.00,3236.98,3509.99,350.23,341.45,31.90,0000 0000 0000 0000 000000
2015-07-04 12:15:59,0.00,0.18,0.00,27.70,31.50,33.82,4.67,26.86,1013.29,2019.99,3391.00,3236.98,3509.99,349.96,341.26,31.93,0000 0000 0000 0000 000000
2015-07-04 12:21:01,0.00,0.18,0.00,27.70,31.49,33.83,4.66,26.94,1013.29,2019.99,3391.01,3236.99,3509.99,349.83,341.21,31.96,0000 0000 0000 0000 000000
2015-07-04 12:26:02,0.00,0.18,0.00,27.70,31.48,33.81,4.69,26.93,1013.34,2019.99,3391.01,3236.98,3509.99,350.07,341.21,31.99,0000 0000 0000 0000 000000
2015-07-04 12:31:03,0.00,0.18,0.00,27.69,31.47,33.81,4.67,26.95,1013.34,2019.99,3391.01,3236.99,3509.99,350.13,341.30,32.02,0000 0000 0000 0000 000000
2015-07-04 12:36:05,0.00,0.18,0.00,27.68,31.47,33.81,4.68,26.98,1013.35,2019.99,3391.02,3236.99,3509.99,349.70,340.84,32.05,0000 0000 0000 0000 000000
2015-07-04 12:41:06,0.00,0.18,0.00,27.67,31.47,33.82,4.77,26.99,1013.39,2019.99,3391.01,3236.99,3509.99,350.28,341.51,32.08,0000 0000 0000 0000 000000
2015-07-04 12:46:07,0.00,0.18,0.00,27.67,31.47,33.80,4.64,26.84,1013.39,2020.00,3391.01,3236.99,3509.99,350.12,341.21,32.10,0000 0000 0000 0000 000000
2015-07-04 12:51:09,0.00,0.18,0.00,27.66,31.46,33.81,4.72,26.91,1013.34,2020.00,3391.00,3236.99,3509.99,350.04,341.22,32.13,0000 0000 0000 0000 000000
2015-07-04 12:56:10,0.00,0.18,0.00,27.65,31.45,33.80,4.69,26.91,1013.50,2020.00,3391.00,3236.99,3509.99,350.15,341.31,32.16,0000 0000 0000 0000 000000
2015-07-04 13:01:11,0.00,0.18,0.00,27.65,31.45,33.81,4.70,26.91,1013.51,2020.03,3391.01,3236.99,3510.00,350.43,341.76,32.19,0000 0000 0000 0000 000000